Regional Weather Roundup
Issued by NWS

Home | Current Version | Previous Version | Text Only | Print | Product List | Glossary Off
Versions: 1 2 3 4 5 6 7 8 9 10 11 12 13 14 15 16 17 18 19 20 21 22 23 24 25 26 27 28 29 30 31 32 33 34 35 36 37 38 39 40 41 42 43 44 45 46 47 48 49 50

000
ASUS43 KTOP 192359
RWRKS

WEATHER ROUNDUP FOR KANSAS
NATIONAL WEATHER SERVICE GOODLAND KS
700 PM CDT FRI SEP 19 2014

NOTE:  "FAIR" INDICATES FEW OR NO CLOUDS BELOW 12,000 FEET WITH NO
SIGNIFICANT WEATHER AND/OR OBSTRUCTIONS TO VISIBILITY.

KSZ001>006-013>018-027>032-041>047-200100-
NORTHWEST KANSAS

CITY           SKY/WX    TMP DP  RH WIND       PRES   REMARKS
GOODLAND       CLEAR     84  58  40 S18       29.88S
6HR MIN TEMP:  84; 6HR MAX TEMP:  89;

HILL CITY      PTCLDY    88  57  34 S14G25    29.84S
6HR MIN TEMP:  87; 6HR MAX TEMP:  92;

RUSSELL        CLEAR     83  60  45 S12       29.85F
6HR MIN TEMP:  83; 6HR MAX TEMP:  89;

$$

KSZ061>065-074>080-084>089-200100-
SOUTHWEST KANSAS

CITY           SKY/WX    TMP DP  RH WIND       PRES   REMARKS
DODGE CITY     CLEAR     84  56  38 S16       29.92S
6HR MIN TEMP:  84; 6HR MAX TEMP:  89;

ELKHART          N/A     79  59  50 S14         N/A
GARDEN CITY    CLEAR     83  58  42 S20G26    29.90S
6HR MIN TEMP:  83; 6HR MAX TEMP:  88;

GREAT BEND     CLEAR     86  59  39 S18       29.88S
LIBERAL        PTCLDY    84  57  39 S20       29.94R
$$

KSZ066>073-081>083-090>101-200100-
SOUTHEAST KANSAS

CITY           SKY/WX    TMP DP  RH WIND       PRES   REMARKS
CHANUTE        CLOUDY    74  69  85 S8        29.97F
6HR MIN TEMP:  71; 6HR MAX TEMP:  76;

COFFEYVILLE    CLEAR     74  68  81 S6        29.96F
6HR MIN TEMP:  72; 6HR MAX TEMP:  76;

HUTCHINSON     CLEAR     87  60  40 S13       29.90S
6HR MIN TEMP:  86; 6HR MAX TEMP:  92;

NEWTON         CLEAR     82  63  51 S15       29.95R
PARSONS        PTCLDY    74  70  87 VRB3      29.98F FOG
6HR MIN TEMP:  72; 6HR MAX TEMP:  76;

WICHITA INTL   CLEAR     84  64  50 SE16G23   29.91S
6HR MIN TEMP:  84; 6HR MAX TEMP:  93;

WICHITA JABRA  CLEAR     82  64  54 S17       29.92S
6HR MIN TEMP:  82; 6HR MAX TEMP:  89;

WINFIELD       CLEAR     80  67  64 SE9       29.95R
6HR MIN TEMP:  80; 6HR MAX TEMP:  86;

$$

KSZ007>012-019>026-033>040-048>060-102>105-200100-
NORTHEAST KANSAS

CITY           SKY/WX    TMP DP  RH WIND       PRES   REMARKS
CONCORDIA      CLEAR     83  67  58 S9        29.84F
6HR MIN TEMP:  82; 6HR MAX TEMP:  88;

EMPORIA        CLEAR     73  68  84 SE13      29.94F
6HR MIN TEMP:  73; 6HR MAX TEMP:  78;

LAWRENCE       CLEAR     77  67  71 S9        29.93S
6HR MIN TEMP:  70; 6HR MAX TEMP:  81;

MANHATTAN      CLEAR     81  69  67 S12G22    29.87S
6HR MIN TEMP:  81; 6HR MAX TEMP:  90;

OLATHE IND     PTCLDY    76  69  79 S8        29.95S
6HR MIN TEMP:  70; 6HR MAX TEMP:  80;

OLATHE EXE     CLEAR     76  68  76 S8        29.94F
6HR MIN TEMP:  70; 6HR MAX TEMP:  79;

SALINA         CLEAR     85  64  49 S12       29.86F
6HR MIN TEMP:  85; 6HR MAX TEMP:  90;

TOPEKA BILLARD CLEAR     79  69  71 S10G21    29.91F
6HR MIN TEMP:  73; 6HR MAX TEMP:  82;

TOPEKA FORBES  CLEAR     77  68  73 S14       29.92F
6HR MIN TEMP:  73; 6HR MAX TEMP:  81;

$$



USA.gov is the U.S. government's official web portal to all federal, state and local government web resources and services.